Regional Weather Roundup
Issued by NWS

Home | Current Version | Previous Version | Text Only | Print | Product List | Glossary On
Versions: 1 2 3 4 5 6 7 8 9 10 11 12 13 14 15 16 17 18 19 20 21 22 23 24 25 26 27 28 29 30 31 32 33 34 35 36 37 38 39 40 41 42 43 44 45 46 47 48 49 50
000
ASUS44 KFWD 050701
RWRTX
NORTH TEXAS HOURLY WEATHER ROUNDUP
NATIONAL WEATHER SERVICE FORT WORTH TX
200 AM CDT SUN JUL 05 2015

NOTE: "FAIR" INDICATES FEW OR NO CLOUDS BELOW 12,000 FEET WITH NO
SIGNIFICANT WEATHER AND/OR OBSTRUCTIONS TO VISIBILITY.

TXZ118-119-050800-
DALLAS/FORT WORTH METROPLEX

CITY           SKY/WX    TMP DP  RH WIND       PRES   REMARKS
DFW AIRPORT    FAIR      82  72  71 S13       29.96F
DALLAS LOVE    FAIR      83  72  69 S10       29.97S
FTW MEACHAM    FAIR      82  73  74 S13       29.96F
DAL-EXECUTIVE  FAIR      79  72  79 VRB7G18   29.97F
FTW-ALLIANCE   FAIR      81  72  74 S9G17     29.97S
FTW-NAS-JRB    FAIR      82  73  74 S15       29.97F
ARLINGTON      FAIR      81  71  71 S9        29.97F
GRAND PRAIRIE  FAIR      81  73  77 S9        29.99S
MESQUITE       FAIR      79  73  82 S8        29.99R
LANCASTER      FAIR      78  71  79 S7        29.99S
$$

TXZ091>094-102>105-117-120-121-131>134-050800-
NORTH CENTRAL TEXAS

CITY           SKY/WX    TMP DP  RH WIND       PRES   REMARKS
BRIDGEPORT     FAIR      80  73  77 S8        29.98S
DENTON         FAIR      79  72  79 S8        29.96F
MCKINNEY       FAIR      80  73  79 S10       29.97S
TERRELL        FAIR      78  73  84 S8        29.99R
WAXAHACHIE     FAIR      76  73  90 S8        30.00S
$$

TXZ083>090-098>101-113>116-127>130-139>142-154-155-050800-
WESTERN NORTH TEXAS

CITY           SKY/WX    TMP DP  RH WIND       PRES   REMARKS
WICHITA FALLS  FAIR      79  70  74 S10       29.95S
WF-KICKAPOO    FAIR      81  70  68 S8        29.96S
VERNON         FAIR      81  62  52 SE6       29.95F
ABILENE        FAIR      80  66  62 S13       30.00S
ABILENE-DYESS  FAIR      78  68  70 S12       29.98S
GRAHAM         FAIR      80  71  72 SE3       29.96S
MINERAL WELLS  FAIR      79  71  76 SE10      29.96F
COMANCHE       FAIR      77  72  83 S9        30.00S
$$

TXZ143>147-156>162-174-175-050800-
CENTRAL TEXAS

CITY           SKY/WX    TMP DP  RH WIND       PRES   REMARKS
WACO           FAIR      79  73  82 S14       29.99S
WACO-MCGREGOR  FAIR      79  72  78 S12       30.01S
CORSICANA      FAIR      78  73  84 S7        30.01S
MEXIA          FAIR      76  73  90 SE15      30.00S
HEARNE         FAIR      76  74  93 SE5       30.01F
TEMPLE         FAIR      77  70  78 S12       30.00S
KILLEEN        FAIR      77  73  87 S10       30.01R
KILLEEN-SKYLRK FAIR      77  70  78 S8        30.00F
FORT HOOD      FAIR      77  72  86 S9        30.00R
LAMPASAS       FAIR      78  74  87 S9        30.01S
$$

TXZ095>097-106>112-122>126-135>138-148>153-164>167-050800-
EAST TEXAS

CITY           SKY/WX    TMP DP  RH WIND       PRES   REMARKS
PARIS          FAIR      73  72  94 SE6       29.99F
SULPHUR SPRNGS FAIR      76  72  86 S3        30.02R
GILMER         FAIR      74  72  91 S5        30.01S
MINEOLA          N/A     75  73  94 SE3       30.01R
TYLER          FAIR      76  72  87 S7        30.01R
LONGVIEW       FAIR      78  73  84 S5        30.01R
ATHENS         FAIR      77  72  83 S7        29.99S
PALESTINE      FAIR      77  74  91 SE3       30.02S
JACKSONVILLE   CLOUDY    74  73  95 S7        30.04F FOG
HENDERSON      FAIR      73  73  97 S5        30.03R
NACOGDOCHES    FAIR     N/A N/A N/A S3        30.02S
LUFKIN         CLOUDY    76  72  87 SE5       30.03S
$$

SUPPLEMENTAL OBSERVATIONS (CENTRAL)

CITY           SKY/WX    TMP DP  RH WIND       PRES   REMARKS
$$

SUPPLEMENTAL OBSERVATIONS (WEST)

CITY           SKY/WX    TMP DP  RH WIND       PRES   REMARKS
$$

SUPPLEMENTAL OBSERVATIONS (EAST)

CITY           SKY/WX    TMP DP  RH WIND       PRES   REMARKS
$$

SUPPLEMENTAL OBSERVATIONS ARE A COLLECTION OF AUTOMATED INSTRUMENTS
THAT ARE MAINTAINED BY A VARIETY OF FEDERAL AND STATE AGENCIES.
CERTAIN ELEMENTS...SUCH AS HUMIDITY VALUES AND SUSTAINED WIND
SPEEDS...MAY BE APPROXIMATED.




USA.gov is the U.S. government's official web portal to all federal, state and local government web resources and services.